Simultaneous Nadir Overpasses (SNOs) Predictions

Prediction of SNOs between LANDSAT-8 and METOP-B Satellite Orbit:

Table of predicted SNOs for the next 14.0 days since TLE Epoch: 3/7/2015
Index Date (LANDSAT-8) Time (LANDSAT-8) Lat,Lon (LANDSAT-8) SZA (LANDSAT-8 ) Date (METOP-B) Time (METOP-B) Lat,Lon (METOP-B) SZA (METOP-B ) Distance(km) Time Diff (sec)
1 03/09/2015 18:07:41 81.07, -53.33 87.13 03/09/2015 18:07:37 81.07, -53.14 87.15 3.23 4
2 03/09/2015 18:57:07 -81.08, 114.58 92.85 03/09/2015 18:58:17 -81.08, 114.50 92.83 1.56 70
3 03/12/2015 12:52:28 -81.03,-154.99 94.01 03/12/2015 12:51:24 -81.03,-154.94 94.03 1.01 64
4 03/12/2015 13:41:53 81.06, 13.06 86.04 03/12/2015 13:42:03 81.06, 13.03 86.04 0.73 10
5 03/15/2015 08:26:39 -81.04, -88.42 95.08 03/15/2015 08:25:49 -81.04, -88.33 95.09 1.60 50
6
